TimeMST,TemperatureF,Dew PointF,Humidity,Sea Level PressureIn,VisibilityMPH,Wind Direction,Wind SpeedMPH,Gust SpeedMPH,PrecipitationIn,Events,Conditions,WindDirDegrees,DateUTC
12:14 AM,32.5,30.0,90,29.76,10.0,SW,4.6,-,N/A,,Clear,220,2013-11-15 07:14:00
12:34 AM,32.9,30.6,91,29.75,10.0,SSW,4.6,-,N/A,,Clear,200,2013-11-15 07:34:00
12:54 AM,33.1,30.4,90,29.75,10.0,Calm,Calm,-,N/A,,Clear,0,2013-11-15 07:54:00
1:14 AM,32.2,30.0,92,29.75,10.0,Calm,Calm,-,N/A,,Clear,0,2013-11-15 08:14:00
1:34 AM,32.4,29.7,90,29.73,10.0,Calm,Calm,-,N/A,,Clear,0,2013-11-15 08:34:00
1:54 AM,32.5,30.2,91,29.73,10.0,Calm,Calm,-,N/A,,Clear,0,2013-11-15 08:54:00
2:14 AM,31.6,29.3,91,29.72,10.0,South,3.5,-,N/A,,Clear,190,2013-11-15 09:14:00
2:34 AM,31.1,29.3,93,29.72,10.0,SSW,3.5,-,N/A,,Clear,200,2013-11-15 09:34:00
2:54 AM,31.5,28.8,90,29.71,10.0,Calm,Calm,-,N/A,,Clear,0,2013-11-15 09:54:00
3:14 AM,31.8,29.1,90,29.70,10.0,Calm,Calm,-,N/A,,Clear,0,2013-11-15 10:14:00
3:34 AM,31.3,28.4,89,29.70,10.0,South,5.8,-,N/A,,Clear,180,2013-11-15 10:34:00
3:54 AM,31.1,28.4,90,29.69,10.0,South,5.8,-,N/A,,Clear,170,2013-11-15 10:54:00
4:14 AM,32.0,28.8,88,29.69,10.0,SSW,5.8,-,N/A,,Clear,200,2013-11-15 11:14:00
4:34 AM,30.2,28.0,92,29.68,10.0,Calm,Calm,-,N/A,,Clear,0,2013-11-15 11:34:00
4:54 AM,29.1,26.8,91,29.67,10.0,SW,3.5,-,N/A,,Clear,220,2013-11-15 11:54:00
5:14 AM,28.2,24.8,87,29.67,10.0,Calm,Calm,-,N/A,,Clear,0,2013-11-15 12:14:00
5:34 AM,30.6,26.4,85,29.66,10.0,South,3.5,-,N/A,,Clear,180,2013-11-15 12:34:00
5:54 AM,31.8,24.8,75,29.66,10.0,Calm,Calm,-,N/A,,Clear,0,2013-11-15 12:54:00
6:14 AM,29.1,26.1,88,29.67,10.0,North,6.9,-,N/A,,Clear,350,2013-11-15 13:14:00
6:34 AM,28.6,27.0,94,29.67,10.0,North,5.8,-,N/A,,Clear,360,2013-11-15 13:34:00
6:54 AM,28.0,27.0,96,29.67,10.0,Calm,Calm,-,N/A,,Clear,0,2013-11-15 13:54:00
7:14 AM,28.4,27.0,94,29.67,10.0,Calm,Calm,-,N/A,,Clear,0,2013-11-15 14:14:00
7:34 AM,31.8,28.4,87,29.68,10.0,WNW,3.5,-,N/A,,Clear,290,2013-11-15 14:34:00
7:54 AM,34.3,29.5,82,29.67,10.0,Calm,Calm,-,N/A,,Clear,0,2013-11-15 14:54:00
8:14 AM,40.6,30.4,67,29.67,10.0,NNW,4.6,-,N/A,,Clear,340,2013-11-15 15:14:00
8:34 AM,48.7,24.6,39,29.67,10.0,ESE,3.5,-,N/A,,Clear,120,2013-11-15 15:34:00
8:54 AM,54.5,19.9,26,29.65,10.0,SSE,5.8,-,N/A,,Clear,160,2013-11-15 15:54:00
9:14 AM,56.7,16.5,21,29.65,10.0,SE,5.8,-,N/A,,Clear,130,2013-11-15 16:14:00
9:34 AM,58.1,15.1,19,29.64,10.0,Calm,Calm,-,N/A,,Clear,0,2013-11-15 16:34:00
9:54 AM,59.0,12.9,16,29.64,10.0,WSW,11.5,18.4,N/A,,Clear,250,2013-11-15 16:54:00
10:14 AM,59.2,13.3,17,29.64,10.0,West,6.9,-,N/A,,Clear,270,2013-11-15 17:14:00
10:34 AM,60.4,12.2,15,29.63,10.0,West,4.6,-,N/A,,Clear,270,2013-11-15 17:34:00
10:54 AM,61.3,12.6,15,29.61,10.0,WNW,4.6,-,N/A,,Clear,290,2013-11-15 17:54:00
11:14 AM,62.2,11.8,14,29.60,10.0,WNW,8.1,-,N/A,,Clear,290,2013-11-15 18:14:00
11:34 AM,62.6,12.9,14,29.58,10.0,ESE,12.7,16.1,N/A,,Clear,120,2013-11-15 18:34:00
11:54 AM,62.8,12.2,14,29.57,10.0,SSE,6.9,-,N/A,,Clear,160,2013-11-15 18:54:00
12:14 PM,63.3,12.0,13,29.56,10.0,SSE,8.1,-,N/A,,Clear,160,2013-11-15 19:14:00
12:34 PM,64.0,12.4,13,29.54,10.0,SSE,8.1,-,N/A,,Clear,160,2013-11-15 19:34:00
12:54 PM,64.2,10.2,12,29.53,10.0,West,4.6,-,N/A,,Clear,260,2013-11-15 19:54:00
1:14 PM,66.0,9.0,11,29.52,10.0,SW,10.4,-,N/A,,Clear,220,2013-11-15 20:14:00
1:34 PM,64.8,9.1,11,29.50,10.0,WSW,8.1,-,N/A,,Clear,240,2013-11-15 20:34:00
1:54 PM,63.3,7.9,11,29.51,10.0,WSW,12.7,17.3,N/A,,Clear,250,2013-11-15 20:54:00
2:14 PM,64.4,9.5,12,29.50,10.0,WSW,13.8,18.4,N/A,,Clear,240,2013-11-15 21:14:00
2:34 PM,63.3,9.7,12,29.49,10.0,SW,10.4,-,N/A,,Clear,230,2013-11-15 21:34:00
2:54 PM,64.0,10.4,12,29.48,10.0,WSW,8.1,-,N/A,,Clear,240,2013-11-15 21:54:00
3:14 PM,61.2,11.1,14,29.48,10.0,SW,3.5,-,N/A,,Clear,230,2013-11-15 22:14:00
3:34 PM,58.3,17.1,20,29.49,10.0,Calm,Calm,-,N/A,,Clear,0,2013-11-15 22:34:00
3:54 PM,57.2,17.2,21,29.49,10.0,Calm,Calm,-,N/A,,Scattered Clouds,0,2013-11-15 22:54:00
4:14 PM,58.5,18.7,21,29.49,10.0,West,11.5,20.7,N/A,,Scattered Clouds,280,2013-11-15 23:14:00
4:34 PM,53.8,24.1,32,29.49,10.0,WNW,16.1,21.9,N/A,,Scattered Clouds,290,2013-11-15 23:34:00
4:54 PM,52.2,24.4,34,29.49,10.0,WNW,10.4,-,N/A,,Scattered Clouds,290,2013-11-15 23:54:00
5:14 PM,51.8,23.9,34,29.50,10.0,WNW,11.5,-,N/A,,Scattered Clouds,290,2013-11-16 00:14:00
5:34 PM,52.5,23.4,32,29.50,10.0,West,13.8,21.9,N/A,,Scattered Clouds,280,2013-11-16 00:34:00
5:54 PM,51.8,23.9,34,29.49,10.0,WNW,11.5,-,N/A,,Scattered Clouds,290,2013-11-16 00:54:00
6:14 PM,49.1,24.6,38,29.50,10.0,West,8.1,-,N/A,,Clear,270,2013-11-16 01:14:00
6:34 PM,49.3,26.8,42,29.50,10.0,West,10.4,18.4,N/A,,Clear,280,2013-11-16 01:34:00
6:54 PM,47.7,26.4,44,29.50,10.0,Calm,Calm,-,N/A,,Clear,0,2013-11-16 01:54:00
7:14 PM,46.6,26.4,45,29.50,10.0,SSW,4.6,-,N/A,,Clear,210,2013-11-16 02:14:00
7:34 PM,43.3,25.7,50,29.50,10.0,Calm,Calm,-,N/A,,Clear,0,2013-11-16 02:34:00
7:54 PM,41.2,26.4,56,29.51,10.0,SSW,3.5,-,N/A,,Clear,210,2013-11-16 02:54:00
8:14 PM,44.2,24.8,46,29.51,10.0,Calm,Calm,-,N/A,,Clear,0,2013-11-16 03:14:00
8:34 PM,43.0,26.2,52,29.50,10.0,NW,8.1,-,N/A,,Clear,310,2013-11-16 03:34:00
8:54 PM,42.8,26.2,52,29.51,10.0,East,5.8,-,N/A,,Clear,90,2013-11-16 03:54:00
9:14 PM,44.8,27.0,50,29.51,10.0,Calm,Calm,-,N/A,,Clear,0,2013-11-16 04:14:00
9:34 PM,43.0,27.3,54,29.51,10.0,Calm,Calm,-,N/A,,Clear,0,2013-11-16 04:34:00
9:54 PM,41.2,27.5,58,29.51,10.0,Calm,Calm,-,N/A,,Scattered Clouds,0,2013-11-16 04:54:00
10:14 PM,39.9,28.2,63,29.51,10.0,NW,5.8,-,N/A,,Clear,310,2013-11-16 05:14:00
10:34 PM,41.2,28.8,61,29.50,10.0,WNW,11.5,-,N/A,,Clear,300,2013-11-16 05:34:00
10:54 PM,41.7,28.4,59,29.50,10.0,WNW,11.5,-,N/A,,Clear,300,2013-11-16 05:54:00
11:14 PM,40.1,28.0,62,29.50,10.0,West,9.2,-,N/A,,Clear,280,2013-11-16 06:14:00
11:34 PM,43.7,24.6,47,29.49,10.0,West,11.5,17.3,N/A,,Clear,260,2013-11-16 06:34:00
11:54 PM,46.2,21.9,38,29.48,10.0,West,16.1,20.7,N/A,,Clear,270,2013-11-16 06:54:00